Weather in Vasilyevka

Russia / Orenburg Oblast     51°51′31″N   56°25′12″E
temp.,
°C
wind,
m/s
gust,
m/s
humid.,
%
clouds,
%
prec.,
mm/h
press.,
hPa
HPBL,
m
19 june, sat
sat1923:00+15n512620 0.0 1021377
02:00+11nne35753 0.0 102280
05:00+10nne22765 0.0 102420
08:00+16nne225227 0.0 1025276
11:00+20nnw33416 0.0 10241382
14:00+23nnw453629 0.0 10231617
17:00+23nw56407 0.0 10221690
20:00+22nw47545 0.0 1022345
20 june, sun
sun2023:00+16nw347212 0.0 102249
02:00+14wnw33800 0.0 102238
05:00+13w22905 0.0 102134
08:00+19wnw59660 0.0 1021472
11:00+25wnw79535 0.0 10191245
14:00+29nw8114396 0.0 10182308
17:00+28nnw7114785 0.0 10172192
20:00+25nnw711595 0.0 10181186
21 june, mon
mon2123:00+19nnw49840 0.0 1019185
02:00+15nnw33830 0.0 102048
05:00+12n22770 0.0 102223
08:00+17nne34495 0.0 1023289
11:00+23n57290 0.0 10231218
14:00+26n68290 0.0 10221685
17:00+27nnw68304 0.0 10221803
20:00+24nnw58432 0.0 1022465
22 june, tue
tue2223:00+16n33665 0.0 102320
02:00+14ne117120 0.0 102311
05:00+14ese006915 0.0 102310
08:00+20nw11510 0.0 1024235
11:00+26wnw45460 0.0 10221038
14:00+30nw573955 0.0 10212560
17:00+31nw683668 0.0 10202385
20:00+29nnw484554 0.0 1019607
23 june, wed
wed2323:00+22n22733 0.0 102021
02:00+19nw22838 0.0 102015
05:00+18wnw22895 1.4 102016
08:00+23nw35760 0.0 1020292
11:00+29nw68464 0.0 10191505
14:00+32nnw88347 0.0 10182711
17:00+32nnw79337 0.0 10172836
20:00+29nnw7104787 0.0 10171238